• In Schweiz
  • Länderverzeichnis
  • Für 7 Tage
  • Wassertemperatur
  • Satellitenkarten
  • Wetterkarte
  • Widgets
  • user-avatar
    Anmelden

    Stündliche Wetter Obock

    Heute, 17 August, Freitag

    Zeit Temperatur Niederschläge Wind Luftdruck Luftfeuchtigkeit
    00:00 +38°C° 0 mm 3 m/S 751 mmHg 44%
    01:00 +38°C° 0 mm 3 m/S 751 mmHg 44%
    02:00 +38°C° 0 mm 3 m/S 751 mmHg 45%
    03:00 +38°C° 0 mm 3 m/S 751 mmHg 46%
    04:00 +37°C° 0 mm 3 m/S 751 mmHg 47%
    05:00 +37°C° 0 mm 2 m/S 751 mmHg 47%
    06:00 +37°C° 0 mm 2 m/S 752 mmHg 48%
    07:00 +38°C° 0 mm 3 m/S 752 mmHg 45%
    08:00 +38°C° 0 mm 3 m/S 752 mmHg 43%
    09:00 +40°C° 0 mm 4 m/S 752 mmHg 39%
    10:00 +41°C° 0 mm 4 m/S 752 mmHg 37%
    11:00 +42°C° 0 mm 4 m/S 752 mmHg 35%
    12:00 +42°C° 0 mm 5 m/S 751 mmHg 33%
    13:00 +43°C° 0 mm 4 m/S 751 mmHg 32%
    14:00 +43°C° 0 mm 4 m/S 750 mmHg 31%
    15:00 +44°C° 0 mm 4 m/S 749 mmHg 30%
    16:00 +43°C° 0 mm 4 m/S 749 mmHg 32%
    17:00 +43°C° 0 mm 5 m/S 749 mmHg 33%
    18:00 +42°C° 0 mm 5 m/S 748 mmHg 34%
    19:00 +41°C° 0,1 mm 5 m/S 749 mmHg 37%
    20:00 +41°C° 0,1 mm 5 m/S 749 mmHg 39%
    21:00 +40°C° 0,1 mm 5 m/S 749 mmHg 41%
    22:00 +40°C° 0 mm 5 m/S 750 mmHg 42%
    23:00 +39°C° 0 mm 5 m/S 750 mmHg 43%

    Morgen, 18 August, Samstag

    Zeit Temperatur Niederschläge Wind Luftdruck Luftfeuchtigkeit
    00:00 +39°C° 0 mm 5 m/S 750 mmHg 44%
    01:00 +39°C° 0 mm 5 m/S 750 mmHg 44%
    02:00 +38°C° 0 mm 4 m/S 750 mmHg 44%
    03:00 +38°C° 0 mm 3 m/S 750 mmHg 44%
    04:00 +37°C° 0 mm 4 m/S 750 mmHg 45%
    05:00 +37°C° 0 mm 4 m/S 750 mmHg 46%
    06:00 +37°C° 0 mm 5 m/S 750 mmHg 47%
    07:00 +37°C° 0 mm 5 m/S 750 mmHg 45%
    08:00 +38°C° 0 mm 6 m/S 751 mmHg 43%
    09:00 +39°C° 0 mm 6 m/S 751 mmHg 41%
    10:00 +40°C° 0 mm 6 m/S 751 mmHg 38%
    11:00 +41°C° 0 mm 6 m/S 750 mmHg 35%
    12:00 +42°C° 0 mm 6 m/S 750 mmHg 31%
    13:00 +43°C° 0 mm 5 m/S 750 mmHg 31%
    14:00 +43°C° 0 mm 5 m/S 749 mmHg 30%
    15:00 +43°C° 0 mm 4 m/S 748 mmHg 29%
    16:00 +43°C° 0,5 mm 4 m/S 748 mmHg 31%
    17:00 +42°C° 0,5 mm 3 m/S 748 mmHg 33%
    18:00 +42°C° 0,5 mm 3 m/S 748 mmHg 35%
    19:00 +40°C° 0,5 mm 3 m/S 748 mmHg 36%
    20:00 +40°C° 0,5 mm 3 m/S 749 mmHg 37%
    21:00 +40°C° 0,5 mm 2 m/S 750 mmHg 38%
    22:00 +39°C° 0 mm 2 m/S 750 mmHg 39%
    23:00 +39°C° 0 mm 2 m/S 750 mmHg 40%

    übermorgen, 19 August, Sonntag

    Zeit Temperatur Niederschläge Wind Luftdruck Luftfeuchtigkeit
    00:00 +39°C° 0 mm 2 m/S 750 mmHg 42%
    01:00 +39°C° 0 mm 2 m/S 750 mmHg 42%
    02:00 +38°C° 0 mm 2 m/S 749 mmHg 42%
    03:00 +38°C° 0 mm 2 m/S 749 mmHg 42%
    04:00 +38°C° 0 mm 2 m/S 749 mmHg 43%
    05:00 +38°C° 0 mm 2 m/S 750 mmHg 44%
    06:00 +37°C° 0 mm 2 m/S 750 mmHg 44%
    07:00 +38°C° 0 mm 3 m/S 750 mmHg 41%
    08:00 +39°C° 0 mm 3 m/S 751 mmHg 39%
    09:00 +40°C° 0 mm 4 m/S 751 mmHg 36%
    10:00 +41°C° 0 mm 4 m/S 751 mmHg 34%
    11:00 +42°C° 0 mm 4 m/S 751 mmHg 32%
    12:00 +43°C° 0 mm 4 m/S 750 mmHg 30%
    13:00 +43°C° 0 mm 4 m/S 749 mmHg 29%
    14:00 +44°C° 0 mm 3 m/S 749 mmHg 28%
    15:00 +44°C° 0 mm 3 m/S 748 mmHg 27%
    16:00 +44°C° 0,3 mm 3 m/S 748 mmHg 28%
    17:00 +42°C° 0,3 mm 2 m/S 747 mmHg 30%
    18:00 +41°C° 0,3 mm 2 m/S 747 mmHg 31%
    19:00 +41°C° 0,4 mm 2 m/S 748 mmHg 33%
    20:00 +40°C° 0,4 mm 3 m/S 749 mmHg 35%
    21:00 +40°C° 0,4 mm 3 m/S 749 mmHg 37%
    22:00 +40°C° 0 mm 3 m/S 749 mmHg 38%
    23:00 +39°C° 0 mm 2 m/S 749 mmHg 39%

    20 August, Montag

    Zeit Temperatur Niederschläge Wind Luftdruck Luftfeuchtigkeit
    00:00 +39°C° 0 mm 2 m/S 749 mmHg 41%
    01:00 +39°C° 0 mm 2 m/S 749 mmHg 41%
    02:00 +38°C° 0 mm 2 m/S 749 mmHg 42%
    03:00 +38°C° 0 mm 3 m/S 749 mmHg 42%
    04:00 +38°C° 0 mm 3 m/S 749 mmHg 43%
    05:00 +37°C° 0 mm 3 m/S 750 mmHg 44%
    06:00 +37°C° 0 mm 3 m/S 750 mmHg 45%
    07:00 +38°C° 0 mm 3 m/S 751 mmHg 41%
    08:00 +40°C° 0 mm 4 m/S 751 mmHg 38%
    09:00 +41°C° 0 mm 4 m/S 752 mmHg 34%
    10:00 +42°C° 0 mm 4 m/S 751 mmHg 32%
    11:00 +43°C° 0 mm 4 m/S 751 mmHg 30%
    12:00 +44°C° 0 mm 4 m/S 751 mmHg 28%
    13:00 +44°C° 0 mm 4 m/S 750 mmHg 27%
    14:00 +44°C° 0 mm 3 m/S 749 mmHg 26%
    15:00 +45°C° 0 mm 3 m/S 748 mmHg 25%
    16:00 +44°C° 0,1 mm 4 m/S 748 mmHg 26%
    17:00 +44°C° 0,1 mm 4 m/S 748 mmHg 27%
    18:00 +44°C° 0,1 mm 4 m/S 748 mmHg 28%
    19:00 +43°C° 0,1 mm 5 m/S 749 mmHg 30%
    20:00 +42°C° 0,1 mm 5 m/S 749 mmHg 31%
    21:00 +41°C° 0,1 mm 5 m/S 750 mmHg 32%
    22:00 +41°C° 0 mm 5 m/S 750 mmHg 33%
    23:00 +41°C° 0 mm 5 m/S 750 mmHg 35%

    21 August, Dienstag

    Zeit Temperatur Niederschläge Wind Luftdruck Luftfeuchtigkeit
    00:00 +40°C° 0 mm 5 m/S 750 mmHg 36%
    01:00 +40°C° 0 mm 5 m/S 750 mmHg 37%
    02:00 +39°C° 0 mm 5 m/S 749 mmHg 38%
    03:00 +38°C° 0 mm 4 m/S 749 mmHg 39%
    04:00 +38°C° 0 mm 4 m/S 750 mmHg 40%
    05:00 +37°C° 0 mm 4 m/S 750 mmHg 41%
    06:00 +37°C° 0 mm 3 m/S 751 mmHg 42%
    07:00 +38°C° 0 mm 4 m/S 751 mmHg 40%
    08:00 +40°C° 0 mm 5 m/S 752 mmHg 37%
    09:00 +40°C° 0 mm 6 m/S 752 mmHg 35%
    10:00 +42°C° 0 mm 6 m/S 752 mmHg 33%
    11:00 +44°C° 0 mm 6 m/S 751 mmHg 31%
    12:00 +45°C° 0 mm 6 m/S 751 mmHg 29%
    13:00 +45°C° 0 mm 6 m/S 750 mmHg 28%
    14:00 +46°C° 0 mm 6 m/S 749 mmHg 26%
    15:00 +47°C° 0 mm 6 m/S 748 mmHg 25%
    16:00 +46°C° 0,1 mm 6 m/S 748 mmHg 26%
    17:00 +45°C° 0,1 mm 7 m/S 748 mmHg 27%
    18:00 +45°C° 0,1 mm 8 m/S 748 mmHg 28%
    19:00 +44°C° 0,1 mm 7 m/S 749 mmHg 30%
    20:00 +43°C° 0,1 mm 7 m/S 749 mmHg 32%
    21:00 +41°C° 0,1 mm 7 m/S 750 mmHg 34%
    22:00 +41°C° 0 mm 7 m/S 749 mmHg 35%
    23:00 +40°C° 0 mm 6 m/S 749 mmHg 36%

    22 August, Mittwoch

    Zeit Temperatur Niederschläge Wind Luftdruck Luftfeuchtigkeit
    00:00 +40°C° 0 mm 6 m/S 749 mmHg 37%
    01:00 +40°C° 0 mm 5 m/S 749 mmHg 38%
    02:00 +39°C° 0 mm 5 m/S 749 mmHg 40%
    03:00 +38°C° 0 mm 4 m/S 749 mmHg 41%
    04:00 +38°C° 0 mm 4 m/S 749 mmHg 42%
    05:00 +38°C° 0 mm 4 m/S 750 mmHg 43%
    06:00 +37°C° 0 mm 4 m/S 750 mmHg 44%
    07:00 +39°C° 0,3 mm 5 m/S 751 mmHg 42%
    08:00 +40°C° 0,3 mm 5 m/S 751 mmHg 41%
    09:00 +40°C° 0,3 mm 6 m/S 752 mmHg 39%
    10:00 +41°C° 0 mm 5 m/S 751 mmHg 36%
    11:00 +42°C° 0 mm 5 m/S 751 mmHg 33%
    12:00 +43°C° 0 mm 5 m/S 750 mmHg 30%
    13:00 +45°C° 0 mm 5 m/S 749 mmHg 29%
    14:00 +46°C° 0 mm 5 m/S 749 mmHg 27%
    15:00 +46°C° 0 mm 5 m/S 748 mmHg 26%
    16:00 +46°C° 0,1 mm 5 m/S 748 mmHg 27%
    17:00 +45°C° 0,1 mm 6 m/S 748 mmHg 27%
    18:00 +45°C° 0,1 mm 7 m/S 748 mmHg 28%
    19:00 +44°C° 0,1 mm 7 m/S 748 mmHg 31%
    20:00 +42°C° 0,1 mm 6 m/S 749 mmHg 34%
    21:00 +41°C° 0,1 mm 6 m/S 749 mmHg 37%
    22:00 +41°C° 0 mm 5 m/S 749 mmHg 38%
    23:00 +40°C° 0 mm 5 m/S 749 mmHg 38%
    Mehr zeigen